Location: Mahannah Oil Field
(37.4664°N, 96.6003°W)
Time: 05:42:30
(UTC+00:00)

Transit 2A Rocket - Pass Details

Date: 22 January 2021
Orbit: 594 x 909 km, 66.7° (Epoch: 03 March)

Event Time Altitude Azimuth Distance (km) Brightness Sun altitude
Rises 18:56:52 0° 214° (SW) 3,397 9.2 32.9°
Reaches altitude 10° 18:59:26 10° 217° (SW) 2,423 8.6 32.8°
Maximum altitude 19:04:57 64° 299° (WNW) 856 5.6 32.7°
Drops below altitude 10° 19:10:02 10° 21° (NNE) 2,226 7.0 32.6°
Sets 19:12:19 0° 25° (NNE) 3,101 7.6 32.5°
